Miscellaneous Local Product
Issued by NWS Hastings, NE

Home | Current Version | Previous Version | Text Only | Print | Product List | Glossary On
Versions: 1 2 3 4 5 6 7 8 9 10 11 12 13 14 15 16 17 18 19 20 21 22 23 24 25 26 27 28 29 30 31 32 33 34 35 36 37 38 39 40 41 42 43 44 45 46 47 48 49 50
000
AXUS43 KGID 211802
MISGRI

GID CWA HOURLY WEATHER ROUNDUP
NATIONAL WEATHER SERVICE HASTINGS NE
100 PM CDT SUN APR 21 2019

NOTE: "FAIR" INDICATES FEW OR NO CLOUDS BELOW 12,000 FEET WITH NO
SIGNIFICANT WEATHER AND/OR OBSTRUCTIONS TO VISIBILITY.

...SOUTH CENTRAL NEBRASKA...

CITY           SKY/WX    TMP DP  RH WIND       PRES   REMARKS
GRAND ISLAND   SUNNY     73  52  47 SE17G25   29.67R
KEARNEY        MOSUNNY   73  51  46 S9        29.65S
HASTINGS       SUNNY     74  52  46 S15G26    29.65S
ORD            FAIR      73  53  49 VRB3      29.66S
YORK           CLOUDY    75  50  41 CALM      29.67R
AURORA         MOSUNNY   76  51  40 S17G28    29.66S
LEXINGTON      FAIR      73  51  46 NE10      29.63F
HOLDREGE       SUNNY     74  52  46 SE10      29.62F
HEBRON         SUNNY     78  52  40 S18G28    29.67S

...NEBRASKA PANHANDLE...

CITY           SKY/WX    TMP DP  RH WIND       PRES   REMARKS
CHADRON        CLOUDY    52  46  80 NE10      29.90R
ALLIANCE       CLOUDY    51  46  83 NW18      29.84F
SCOTTSBLUFF    LGT RAIN  52  47  83 N8        29.90R
SIDNEY         PTSUNNY   53  46  77 N21G31    29.82R

...WESTERN AND NORTH CENTRAL NEBRASKA...

CITY           SKY/WX    TMP DP  RH WIND       PRES   REMARKS
VALENTINE      CLOUDY    59  45  59 N26G37    29.79F
AINSWORTH      PTSUNNY   58  47  65 N21G29    29.77F
ONEILL         FAIR      64  51  64 N7        29.71S
BROKEN BOW     FAIR      73  51  46 N9G22     29.68S
IMPERIAL       SUNNY     69  44  40 N17G28    29.70R
NORTH PLATTE   MOSUNNY   63  50  62 N21       29.68S
MCCOOK         SUNNY     75  50  41 VRB6      29.64R

...EASTERN NEBRASKA...

CITY           SKY/WX    TMP DP  RH WIND       PRES   REMARKS
NORFOLK        PTSUNNY   73  50  44 SE14      29.66F
SO SIOUX CITY  CLOUDY    76  51  41 S9G20     29.67F
TEKAMAH        CLOUDY    75  51  43 SE17      29.67F
COLUMBUS       PTSUNNY   71  51  49 SE15      29.66F
ALBION         MOSUNNY   73  51  47 S7        29.65F
OMAHA EPPLEY   CLOUDY    76  49  38 SE20      29.70F
OFFUTT AFB     MOSUNNY   73  50  43 SE13      29.72S
MILLARD        PTSUNNY   75  53  45 SE13G20   29.70F
LINCOLN        SUNNY     80  53  39 S15G26    29.68F
NEBRASKA CITY  PTSUNNY   80  46  30 S26       29.72S
BEATRICE       MOSUNNY   76  53  44 SE18G24   29.67F
FALLS CITY     SUNNY     83  50  31 S22G38    29.72F

...NORTHERN KANSAS...

CITY           SKY/WX    TMP DP  RH WIND       PRES   REMARKS
GOODLAND       SUNNY     74  47  38 N26G39    29.69R
HILL CITY      SUNNY     84  43  23 S15G25    29.60F
NORTON         CLEAR     82  45  26 S9G16     29.62F
PHILLIPSBURG   SUNNY     79  48  34 S15G23    29.60S
OBERLIN        FAIR      74  45  34 NW8       29.66F
SMITH CENTER   SUNNY     79  48  34 SE18G24   29.62F
HAYS           MOSUNNY   82  49  31 S23G30    29.61F
RUSSELL        MOSUNNY   80  50  34 S21G33    29.63S
CONCORDIA      SUNNY     79  53  40 S22G33    29.66F
SALINA         SUNNY     78  55  44 S24G40    29.68F
TOPEKA         SUNNY     81  50  33 S28G41    29.76S


USA.gov is the U.S. government's official web portal to all federal, state and local government web resources and services.